Location: Chagrin Falls Park
(41.4139°N, 81.3865°W)
Time: 23:18:34
(UTC+00:00)

STARLINK-2727 - Pass Details

Date: 31 July 2021
Orbit: 546 x 548 km, 53.1° (Epoch: 20 September)

Event Time Altitude Azimuth Distance (km) Brightness Sun altitude
Rises 01:43:13 0° 307° (NW) 2,722 9.5 -10.3°
Reaches altitude 10° 01:45:27 10° 307° (NW) 1,826 7.9 -10.6°
Maximum altitude 01:49:36 84° 221° (SW) 556 3.6 -11.3°
Enters shadow 01:52:40 18° 132° (SE) 1,398 5.0 -11.7°
